Columbia Owens, SC

8:05 AM EDT on July 24, 2017 (GMT -0400)
Columbia Owens Downtown

Weather History for KCUB - July, 2013

Change the Weather History Date:

Monday, July 29, 2013

  Actual Average Record
Temperature  
Mean Temperature 83 °F 83 °F  
Max Temperature 91 °F 93 °F 100 °F (1999)
Min Temperature 75 °F 73 °F 68 °F (2014)
Degree Days  
Heating Degree Days 0 0  
Month to date heating degree days 0 0  
Since 1 June heating degree days 0 0  
Since 1 July heating degree days 0 0  
Cooling Degree Days 18 18  
Month to date cooling degree days 469 515  
Year to date cooling degree days 1236 1284  
Since 1 June cooling degree days 926 948  
Growing Degree Days 32 (Base 50)    
Moisture  
Dew Point 73 °F    
Average Humidity 84    
Maximum Humidity 100    
Minimum Humidity 55    
Precipitation  
Precipitation 0.09 in 0.13 in 0.94 in (2006)
Month to date precipitation 11.36 4.86  
Year to date precipitation 34.90 26.59  
Sea Level Pressure  
Sea Level Pressure 30.08 in    
Wind  
Wind Speed 1 mph (SSW)    
Max Wind Speed 12 mph    
Max Gust Speed 18 mph    
Visibility 7 miles    
Events Rain    
T = Trace of Precipitation, MM = Missing Value Source: NWS Daily Summary

Daily Weather History Graph

Daily Weather History Graph

Search for Another Location

Airport or City:

Trip Planner

Search our weather history database for the weather conditions in past years. The results will help you decide how hot, cold, wet, or windy it might be!

Date:

Astronomy

Jul. 29, 2013 Rise Set
Actual Time 6:33 AM EDT 8:26 PM EDT
Civil Twilight 6:05 AM EDT 8:54 PM EDT
Nautical Twilight 5:32 AM EDT 9:27 PM EDT
Astronomical Twilight 4:56 AM EDT 10:03 PM EDT
Moon 12:11 AM EDT (7/29) 1:50 PM EDT (7/29)
Length of Visible Light 14h 48m
Length of Day
13h 53m
Waning Gibbous, 51% of the Moon is Illuminated
Jul 29
Waning Gibbous
Jul 29
Last Quarter
Aug 6
New
Aug 14
First Quarter
Aug 20
Full

Hourly Weather History & Observations

Time (EDT) Temp. Heat Index Dew Point Humidity Pressure Visibility Wind Dir Wind Speed Gust Speed Precip Events Conditions
12:53 AM 75.9 °F - 75.0 °F 97% 30.03 in 4.0 mi Calm Calm - N/A   Partly Cloudy
1:53 AM 75.9 °F - 73.9 °F 94% 30.02 in 4.0 mi Calm Calm - N/A   Clear
2:53 AM 75.9 °F - 73.9 °F 94% 30.02 in 4.0 mi Calm Calm - N/A   Clear
3:53 AM 75.9 °F - 73.9 °F 94% 30.02 in 4.0 mi Calm Calm - N/A   Mostly Cloudy
4:53 AM 75.9 °F - 73.9 °F 94% 30.03 in 5.0 mi West 3.5 mph - N/A   Clear
5:53 AM 75.0 °F - 73.0 °F 94% 30.04 in 3.0 mi Calm Calm - N/A   Clear
6:53 AM 75.0 °F - 73.0 °F 94% 30.06 in 2.5 mi Calm Calm - N/A   Clear
7:23 AM 75.2 °F - 73.4 °F 94% 30.07 in 3.0 mi Calm Calm - N/A   Clear
7:53 AM 75.9 °F - 73.9 °F 94% 30.08 in 5.0 mi Calm Calm - N/A   Clear
8:53 AM 78.1 °F - 73.9 °F 87% 30.09 in 6.0 mi Calm Calm - N/A   Clear
9:53 AM 80.1 °F 85.1 °F 75.0 °F 85% 30.09 in 6.0 mi Calm Calm - N/A   Haze
10:53 AM 82.9 °F 87.5 °F 71.1 °F 67% 30.10 in 9.0 mi Calm Calm - N/A   Clear
11:53 AM 84.9 °F 90.7 °F 72.0 °F 65% 30.10 in 10.0 mi South 4.6 mph - N/A   Clear
12:53 PM 87.1 °F 92.0 °F 70.0 °F 57% 30.09 in 10.0 mi Variable 3.5 mph - N/A   Clear
1:53 PM 89.1 °F 95.0 °F 71.1 °F 55% 30.07 in 10.0 mi North 3.5 mph - N/A   Partly Cloudy
2:53 PM 89.1 °F 95.0 °F 71.1 °F 55% 30.05 in 10.0 mi Calm Calm - N/A   Mostly Cloudy
3:53 PM 75.9 °F - 71.1 °F 85% 30.10 in 10.0 mi South 6.9 mph - 0.00 in Rain Light Rain
4:53 PM 77.0 °F - 73.0 °F 88% 30.10 in 4.0 mi Calm Calm - 0.09 in Rain Light Rain
5:53 PM 78.1 °F - 73.9 °F 87% 30.08 in 10.0 mi Calm Calm - 0.00 in   Clear
6:53 PM 81.0 °F 85.8 °F 73.0 °F 77% 30.08 in 10.0 mi Calm Calm - N/A   Clear
7:53 PM 79.0 °F - 73.9 °F 84% 30.11 in 10.0 mi Calm Calm - N/A   Clear
8:53 PM 78.1 °F - 75.0 °F 90% 30.12 in 10.0 mi Calm Calm - N/A   Scattered Clouds
9:53 PM 77.0 °F - 75.0 °F 94% 30.16 in 9.0 mi Calm Calm - N/A   Partly Cloudy
10:53 PM 75.9 °F - 73.9 °F 94% 30.15 in 10.0 mi South 3.5 mph - N/A   Mostly Cloudy
11:53 PM 75.9 °F - 73.0 °F 91% 30.15 in 10.0 mi Calm Calm - N/A   Clear